| time (UTC) | temp C | wind direction | speed KPH | gust KPH | rain 1hr cm | rain 24hr cm | rain mn cm | humidity % | barometer mb |
| 20260504130404 | 10 | 153 | 0.0 | 4.8 | 0.00 | 0.00 | 0.00 | 69 | 1006.9 |
| 20260504110405 | 9 | 150 | 1.6 | 4.8 | 0.00 | 0.00 | 0.00 | 70 | 1006.2 |
| 20260504100404 | 10 | 83 | 1.6 | 4.8 | 0.00 | 0.00 | 0.00 | 73 | 1006.2 |
| 20260504081905 | 10 | 192 | 0.0 | 0.0 | 0.00 | 0.00 | 0.00 | 67 | 1007.5 |
| 20260504081404 | 10 | 192 | 0.0 | 0.0 | 0.00 | 0.00 | 0.00 | 66 | 1007.6 |
| 20260504070404 | 10 | 149 | 3.2 | 4.8 | 0.00 | 0.00 | 0.00 | 60 | 1008.4 |
| 20260504045404 | 11 | 150 | 1.6 | 4.8 | 0.00 | 0.00 | 0.00 | 54 | 1008.8 |
| 20260504044404 | 11 | 11 | 1.6 | 4.8 | 0.00 | 0.00 | 0.00 | 50 | 1008.8 |
| 20260504043405 | 11 | 145 | 0.0 | 4.8 | 0.00 | 0.00 | 0.00 | 49 | 1008.8 |
| 20260504042404 | 12 | 131 | 1.6 | 8.0 | 0.00 | 0.00 | 0.00 | 48 | 1008.6 |
| 20260504041404 | 12 | 84 | 0.0 | 3.2 | 0.00 | 0.00 | 0.00 | 45 | 1008.7 |
| 20260504035904 | 12 | 42 | 1.6 | 4.8 | 0.00 | 0.00 | 0.00 | 40 | 1008.4 |
| 20260504034904 | 13 | 138 | 0.0 | 1.6 | 0.00 | 0.00 | 0.00 | 37 | 1008.5 |
| 20260504032904 | 14 | 135 | 1.6 | 3.2 | 0.00 | 0.00 | 0.00 | 34 | 1008.5 |
| 20260504031904 | 14 | 135 | 1.6 | 4.8 | 0.00 | 0.00 | 0.00 | 33 | 1008.5 |
| 20260504030405 | 15 | 150 | 4.8 | 8.0 | 0.00 | 0.00 | 0.00 | 32 | 1008.4 |
| 20260504024904 | 15 | 144 | 3.2 | 12.9 | 0.00 | 0.00 | 0.00 | 30 | 1008.1 |
| 20260504023404 | 15 | 139 | 3.2 | 12.9 | 0.00 | 0.00 | 0.00 | 30 | 1007.9 |
| 20260504022904 | 15 | 159 | 3.2 | 12.9 | 0.00 | 0.00 | 0.00 | 30 | 1007.8 |
| 20260504021904 | 16 | 155 | 3.2 | 8.0 | 0.00 | 0.00 | 0.00 | 29 | 1007.7 |
| 20260504021404 | 16 | 148 | 3.2 | 8.0 | 0.00 | 0.00 | 0.00 | 29 | 1007.6 |
| 20260504020403 | 16 | 169 | 3.2 | 8.0 | 0.00 | 0.00 | 0.00 | 29 | 1007.6 |
| 20260504015404 | 16 | 171 | 1.6 | 12.9 | 0.00 | 0.00 | 0.00 | 29 | 1007.4 |
| 20260504014405 | 17 | 0 | 4.8 | 12.9 | 0.00 | 0.00 | 0.00 | 27 | 1007.3 |
| 20260504013404 | 17 | 0 | 3.2 | 16.1 | 0.00 | 0.00 | 0.00 | 27 | 1007.4 |
| 20260504012904 | 17 | 0 | 4.8 | 16.1 | 0.00 | 0.00 | 0.00 | 27 | 1007.4 |
| 20260504011904 | 17 | 0 | 8.0 | 12.9 | 0.00 | 0.00 | 0.00 | 26 | 1007.5 |
| 20260504011406 | 17 | 0 | 4.8 | 12.9 | 0.00 | 0.00 | 0.00 | 26 | 1007.5 |
| 20260504005404 | 18 | 198 | 3.2 | 12.9 | 0.00 | 0.00 | 0.00 | 25 | 1007.6 |
| 20260504002904 | 18 | 197 | 4.8 | 16.1 | 0.00 | 0.00 | 0.00 | 25 | 1007.7 |
| 20260504002404 | 18 | 183 | 8.0 | 16.1 | 0.00 | 0.00 | 0.00 | 25 | 1007.8 |
| 20260504001904 | 19 | 164 | 8.0 | 16.1 | 0.00 | 0.00 | 0.00 | 24 | 1007.7 |
| 20260504001404 | 19 | 157 | 8.0 | 16.1 | 0.00 | 0.00 | 0.00 | 25 | 1007.8 |
| 20260504000403 | 19 | 204 | 3.2 | 14.5 | 0.00 | 0.00 | 0.00 | 24 | 1007.9 |
| 20260503235905 | 19 | 155 | 4.8 | 19.3 | 0.00 | 0.00 | 0.00 | 24 | 1007.9 |
| 20260503235404 | 19 | 184 | 8.0 | 19.3 | 0.00 | 0.00 | 0.00 | 24 | 1008.0 |
| 20260503234904 | 19 | 148 | 9.7 | 19.3 | 0.00 | 0.00 | 0.00 | 24 | 1007.9 |
| 20260503234404 | 19 | 202 | 3.2 | 14.5 | 0.00 | 0.00 | 0.00 | 24 | 1007.9 |
| 20260503232904 | 20 | 199 | 6.4 | 19.3 | 0.00 | 0.00 | 0.00 | 24 | 1008.1 |
| 20260503230904 | 20 | 216 | 6.4 | 16.1 | 0.00 | 0.00 | 0.00 | 26 | 1008.3 |
| 20260503230404 | 20 | 148 | 3.2 | 16.1 | 0.00 | 0.00 | 0.00 | 25 | 1008.3 |
| 20260503225905 | 20 | 166 | 8.0 | 16.1 | 0.00 | 0.00 | 0.00 | 24 | 1008.5 |
| 20260503224904 | 20 | 177 | 4.8 | 11.3 | 0.00 | 0.00 | 0.00 | 25 | 1008.5 |
| 20260503223904 | 19 | 165 | 4.8 | 16.1 | 0.00 | 0.00 | 0.00 | 24 | 1008.6 |
| 20260503222904 | 20 | 133 | 9.7 | 16.1 | 0.00 | 0.00 | 0.00 | 22 | 1008.9 |
| 20260503221904 | 20 | 239 | 4.8 | 14.5 | 0.00 | 0.00 | 0.00 | 23 | 1009.0 |
| 20260503220404 | 20 | 175 | 4.8 | 11.3 | 0.00 | 0.00 | 0.00 | 26 | 1009.3 |
| 20260503215904 | 19 | 306 | 1.6 | 4.8 | 0.00 | 0.00 | 0.00 | 25 | 1009.2 |
| 20260503214404 | 18 | 280 | 0.0 | 14.5 | 0.00 | 0.00 | 0.00 | 25 | 1009.6 |
| 20260503213905 | 18 | 190 | 4.8 | 14.5 | 0.00 | 0.00 | 0.00 | 25 | 1009.8 |
| 20260503212904 | 18 | 308 | 3.2 | 11.3 | 0.00 | 0.00 | 0.00 | 26 | 1009.9 |
| 20260503210904 | 19 | 212 | 3.2 | 9.7 | 0.00 | 0.00 | 0.00 | 25 | 1010.6 |
| 20260503210404 | 19 | 3 | 3.2 | 16.1 | 0.00 | 0.00 | 0.00 | 25 | 1010.6 |
| 20260503204904 | 20 | 194 | 3.2 | 12.9 | 0.00 | 0.00 | 0.00 | 25 | 1010.7 |
| 20260503203904 | 19 | 269 | 4.8 | 16.1 | 0.00 | 0.00 | 0.00 | 25 | 1011.0 |
| 20260503202905 | 18 | 193 | 8.0 | 16.1 | 0.00 | 0.00 | 0.00 | 26 | 1011.3 |
| 20260503201904 | 20 | 170 | 6.4 | 19.3 | 0.00 | 0.00 | 0.00 | 24 | 1011.5 |
| 20260503200904 | 20 | 307 | 4.8 | 16.1 | 0.00 | 0.00 | 0.00 | 24 | 1011.6 |
| 20260503195404 | 20 | 226 | 1.6 | 19.3 | 0.00 | 0.00 | 0.00 | 24 | 1011.9 |
| 20260503194905 | 20 | 31 | 3.2 | 14.5 | 0.00 | 0.00 | 0.00 | 24 | 1011.8 |
| 20260503193904 | 20 | 246 | 3.2 | 11.3 | 0.00 | 0.00 | 0.00 | 23 | 1012.3 |
| 20260503193404 | 20 | 268 | 3.2 | 8.0 | 0.00 | 0.00 | 0.00 | 23 | 1012.3 |
| 20260503190904 | 19 | 203 | 3.2 | 8.0 | 0.00 | 0.00 | 0.00 | 25 | 1012.8 |
| 20260503183906 | 18 | 5 | 3.2 | 11.3 | 0.00 | 0.00 | 0.00 | 25 | 1013.5 |
| 20260503183405 | 18 | 285 | 3.2 | 11.3 | 0.00 | 0.00 | 0.00 | 23 | 1013.8 |
| 20260503182905 | 18 | 208 | 4.8 | 11.3 | 0.00 | 0.00 | 0.00 | 23 | 1013.8 |
| 20260503182404 | 18 | 218 | 3.2 | 11.3 | 0.00 | 0.00 | 0.00 | 26 | 1013.9 |
| 20260503181904 | 18 | 258 | 4.8 | 4.8 | 0.00 | 0.00 | 0.00 | 26 | 1014.1 |
| 20260503180404 | 17 | 220 | 3.2 | 4.8 | 0.00 | 0.00 | 0.00 | 27 | 1014.3 |
| 20260503175404 | 17 | 21 | 3.2 | 9.7 | 0.00 | 0.00 | 0.00 | 30 | 1014.6 |
| 20260503174904 | 17 | 168 | 1.6 | 11.3 | 0.00 | 0.00 | 0.00 | 30 | 1014.7 |
| 20260503174404 | 17 | 264 | 3.2 | 11.3 | 0.00 | 0.00 | 0.00 | 31 | 1014.8 |
| 20260503171904 | 16 | 222 | 3.2 | 11.3 | 0.00 | 0.00 | 0.00 | 35 | 1015.1 |
| 20260503171405 | 16 | 309 | 1.6 | 11.3 | 0.00 | 0.00 | 0.00 | 38 | 1015.1 |
| 20260503170904 | 16 | 225 | 4.8 | 11.3 | 0.00 | 0.00 | 0.00 | 35 | 1015.1 |